Weather History for Eagle, CO

Change the Weather History Date:

Friday, July 26, 2013

  Actual Average Record
Temperature  
Mean Temperature 68 °F -  
Max Temperature 87 °F 84 °F 96 °F (1953)
Min Temperature 50 °F 47 °F 37 °F (1950)
Cooling Degree Days 4    
Growing Degree Days 18 (Base 50)    
Moisture  
Dew Point 45 °F    
Average Humidity 60    
Maximum Humidity 94    
Minimum Humidity 15    
Precipitation  
Precipitation 0.00 in - - ()
Sea Level Pressure  
Sea Level Pressure 30.32 in    
Wind  
Wind Speed 2 mph (East)    
Max Wind Speed 10 mph    
Max Gust Speed -    
Visibility 10 miles    
Events      
Averages and records for this station are not official NWS values.
T = Trace of Precipitation, MM = Missing Value Source: NWS Daily Summary

Daily Weather History Graph

Daily Weather History Graph

Search for Another Location

Airport:

Trip Planner

Search our weather history database for the weather conditions in past years. The results will help you decide how hot, cold, wet, or windy it might be!

Date:

Astronomy

Jul. 26, 2013 Rise Set
Actual Time 6:01 AM MDT 8:26 PM MDT
Civil Twilight 5:31 AM MDT 8:56 PM MDT
Nautical Twilight 4:53 AM MDT 9:34 PM MDT
Astronomical Twilight 4:11 AM MDT 10:16 PM MDT
Moon 10:42 PM MDT (7/26) 10:40 AM MDT (7/26)
Length of Visible Light 15h 25m
Length of Day
14h 24m
Waning Gibbous, 79% of the Moon is Illuminated
Jul 26
Waning Gibbous
Jul 29
Last Quarter
Aug 6
New
Aug 14
First Quarter
Aug 20
Full

Hourly Weather History & Observations

Time (MDT) Temp. Dew Point Humidity Pressure Visibility Wind Dir Wind Speed Gust Speed Precip Events Conditions
12:15 AM 55.4 °F 51.8 °F 88% 30.37 in 10.0 mi Calm Calm - N/A   Clear
12:35 AM 55.4 °F 51.8 °F 88% 30.37 in 10.0 mi Calm Calm - N/A   Clear
12:55 AM 55.4 °F 51.8 °F 88% 30.37 in 10.0 mi Calm Calm - N/A   Clear
1:15 AM 53.6 °F 51.8 °F 94% 30.38 in 10.0 mi Calm Calm - N/A   Clear
1:35 AM 53.6 °F 51.8 °F 94% 30.37 in 10.0 mi ESE 4.6 mph - N/A   Scattered Clouds
1:55 AM 53.6 °F 51.8 °F 94% 30.39 in 10.0 mi Calm Calm - N/A   Scattered Clouds
2:15 AM 53.6 °F 51.8 °F 94% 30.38 in 10.0 mi East 3.5 mph - N/A   Scattered Clouds
2:35 AM 53.6 °F 51.8 °F 94% 30.38 in 10.0 mi Calm Calm - N/A   Partly Cloudy
2:55 AM 51.8 °F 50.0 °F 94% 30.38 in 10.0 mi ESE 3.5 mph - N/A   Clear
3:15 AM 51.8 °F 50.0 °F 94% 30.37 in 10.0 mi Calm Calm - N/A   Clear
3:35 AM 51.8 °F 50.0 °F 94% 30.37 in 10.0 mi Calm Calm - N/A   Clear
3:55 AM 51.8 °F 48.2 °F 88% 30.37 in 10.0 mi Calm Calm - N/A   Clear
4:15 AM 51.8 °F 48.2 °F 88% 30.38 in 10.0 mi Calm Calm - N/A   Clear
4:35 AM 51.8 °F 48.2 °F 88% 30.38 in 10.0 mi Calm Calm - N/A   Mostly Cloudy
4:55 AM 51.8 °F 48.2 °F 88% 30.38 in 10.0 mi Calm Calm - N/A   Mostly Cloudy
5:15 AM 50.0 °F 48.2 °F 94% 30.38 in 10.0 mi Calm Calm - N/A   Mostly Cloudy
5:35 AM 51.8 °F 48.2 °F 88% 30.38 in 10.0 mi Calm Calm - N/A   Partly Cloudy
5:55 AM 50.0 °F 48.2 °F 94% 30.39 in 10.0 mi Calm Calm - N/A   Clear
6:35 AM 50.0 °F 48.2 °F 94% 30.40 in 10.0 mi Calm Calm - N/A   Clear
6:50 AM 51.8 °F 50.0 °F 94% 30.40 in 10.0 mi Calm Calm - N/A   Partly Cloudy
7:50 AM 53.6 °F 50.0 °F 88% 30.41 in 10.0 mi Calm Calm - N/A   Clear
8:50 AM 55.4 °F 51.8 °F 88% 30.41 in 10.0 mi Calm Calm - N/A   Clear
9:50 AM 62.6 °F 50.0 °F 63% 30.40 in 10.0 mi Calm Calm - N/A   Clear
10:50 AM 66.2 °F 48.2 °F 52% 30.39 in 10.0 mi Calm Calm - N/A   Partly Cloudy
11:50 AM 73.4 °F 46.4 °F 38% 30.36 in 10.0 mi Calm Calm - N/A   Partly Cloudy
12:50 PM 78.8 °F 44.6 °F 30% 30.33 in 10.0 mi Calm Calm - N/A   Partly Cloudy
1:50 PM 82.4 °F 39.2 °F 21% 30.30 in 10.0 mi Calm Calm - N/A   Scattered Clouds
2:50 PM 82.4 °F 37.4 °F 20% 30.28 in 10.0 mi Calm Calm - N/A   Scattered Clouds
3:50 PM 84.2 °F 37.4 °F 19% 30.27 in 10.0 mi Calm Calm - N/A   Scattered Clouds
4:50 PM 82.4 °F 35.6 °F 19% 30.25 in 10.0 mi Calm Calm - N/A   Scattered Clouds
5:50 PM 87.8 °F 33.8 °F 15% 30.23 in 10.0 mi NNW 5.8 mph - N/A   Partly Cloudy
6:50 PM 84.2 °F 37.4 °F 19% 30.22 in 10.0 mi NE 8.1 mph - N/A   Partly Cloudy
6:55 PM 82.4 °F 37.4 °F 20% 30.22 in 10.0 mi East 10.4 mph - N/A   Clear
7:15 PM 82.4 °F 39.2 °F 21% 30.22 in 10.0 mi East 8.1 mph - N/A   Partly Cloudy
7:35 PM 82.4 °F 39.2 °F 21% 30.22 in 10.0 mi East 9.2 mph - N/A   Partly Cloudy
7:55 PM 80.6 °F 39.2 °F 23% 30.22 in 10.0 mi East 6.9 mph - N/A   Partly Cloudy
8:15 PM 78.8 °F 39.2 °F 24% 30.22 in 10.0 mi East 4.6 mph - N/A   Partly Cloudy
8:35 PM 77.0 °F 39.2 °F 26% 30.22 in 10.0 mi East 3.5 mph - N/A   Clear
8:55 PM 75.2 °F 39.2 °F 27% 30.23 in 10.0 mi SE 4.6 mph - N/A   Clear
9:15 PM 71.6 °F 42.8 °F 35% 30.23 in 10.0 mi ENE 8.1 mph - N/A   Clear
10:15 PM 68.0 °F 41.0 °F 37% 30.26 in 10.0 mi East 8.1 mph - N/A   Clear
10:35 PM 66.2 °F 41.0 °F 40% 30.26 in 10.0 mi ENE 5.8 mph - N/A   Clear
10:55 PM 64.4 °F 42.8 °F 45% 30.26 in 10.0 mi ESE 3.5 mph - N/A   Clear
11:15 PM 64.4 °F 42.8 °F 45% 30.26 in 10.0 mi ESE 3.5 mph - N/A   Clear
11:35 PM 62.6 °F 42.8 °F 48% 30.26 in 10.0 mi ESE 3.5 mph - N/A   Clear
11:55 PM 60.8 °F 42.8 °F 52% 30.27 in 10.0 mi East 3.5 mph - N/A   Clear